Tampa, FL

2:17 PM EDT on August 21, 2017 (GMT -0400)
Tampa International

Weather History for KTPA - May, 2012

Change the Weather History Date:

Thursday, May 10, 2012

  Actual Average Record
Temperature  
Mean Temperature 79 °F 77 °F  
Max Temperature 87 °F 86 °F 94 °F (2009)
Min Temperature 71 °F 68 °F 55 °F (1923)
Degree Days  
Heating Degree Days 0 0  
Month to date heating degree days 0 0  
Since 1 July heating degree days 210 538  
Cooling Degree Days 14 12  
Month to date cooling degree days 157 113  
Year to date cooling degree days 952 573  
Growing Degree Days 30 (Base 50)    
Moisture  
Dew Point 63 °F    
Average Humidity 57    
Maximum Humidity 84    
Minimum Humidity 29    
Precipitation  
Precipitation 0.00 in 0.05 in 1.84 in (1957)
Month to date precipitation 0.03 0.53  
Year to date precipitation 6.26 10.63  
Sea Level Pressure  
Sea Level Pressure 29.86 in    
Wind  
Wind Speed 7 mph (NW)    
Max Wind Speed 17 mph    
Max Gust Speed 26 mph    
Visibility 10 miles    
Events      
T = Trace of Precipitation, MM = Missing Value Source: NWS Daily Summary

Daily Weather History Graph

Daily Weather History Graph

Search for Another Location

Airport or City:

Trip Planner

Search our weather history database for the weather conditions in past years. The results will help you decide how hot, cold, wet, or windy it might be!

Date:

Astronomy

May. 10, 2012 Rise Set
Actual Time 6:43 AM EDT 8:10 PM EDT
Civil Twilight 6:17 AM EDT 8:35 PM EDT
Nautical Twilight 5:47 AM EDT 9:05 PM EDT
Astronomical Twilight 5:16 AM EDT 9:37 PM EDT
Moon 12:05 AM EDT (5/10) 11:06 AM EDT (5/10)
Length of Visible Light 14h 17m
Length of Day
13h 26m
Waning Gibbous, 73% of the Moon is Illuminated
May 10
Waning Gibbous
May 12
Last Quarter
May 20
New
May 28
First Quarter
Jun 4
Full

Hourly Weather History & Observations

Time (EDT) Temp. Heat Index Dew Point Humidity Pressure Visibility Wind Dir Wind Speed Gust Speed Precip Events Conditions
12:53 AM 79.0 °F - 69.1 °F 72% 29.83 in 10.0 mi West 9.2 mph - N/A   Partly Cloudy
1:53 AM 78.1 °F - 70.0 °F 76% 29.82 in 10.0 mi WNW 8.1 mph - N/A   Mostly Cloudy
2:53 AM 77.0 °F - 70.0 °F 79% 29.80 in 10.0 mi WNW 5.8 mph - N/A   Partly Cloudy
3:53 AM 77.0 °F - 70.0 °F 79% 29.81 in 10.0 mi NW 4.6 mph - N/A   Mostly Cloudy
4:53 AM 75.9 °F - 69.1 °F 79% 29.81 in 10.0 mi Calm Calm - N/A   Scattered Clouds
5:53 AM 75.0 °F - 68.0 °F 79% 29.82 in 10.0 mi North 6.9 mph - N/A   Partly Cloudy
6:53 AM 72.0 °F - 66.0 °F 81% 29.84 in 10.0 mi NNE 5.8 mph - N/A   Scattered Clouds
7:53 AM 73.0 °F - 64.0 °F 73% 29.87 in 10.0 mi North 11.5 mph 16.1 mph N/A   Scattered Clouds
8:53 AM 73.9 °F - 63.0 °F 68% 29.87 in 10.0 mi North 6.9 mph - N/A   Partly Cloudy
9:53 AM 77.0 °F - 63.0 °F 62% 29.88 in 10.0 mi Calm Calm - N/A   Clear
10:53 AM 81.0 °F 82.2 °F 63.0 °F 54% 29.88 in 10.0 mi Variable 3.5 mph - N/A   Scattered Clouds
11:53 AM 81.0 °F 82.5 °F 64.0 °F 56% 29.88 in 10.0 mi WSW 8.1 mph - N/A   Scattered Clouds
12:53 PM 82.9 °F 84.6 °F 64.9 °F 54% 29.88 in 10.0 mi WSW 11.5 mph - N/A   Scattered Clouds
1:53 PM 84.0 °F 84.5 °F 62.1 °F 47% 29.87 in 10.0 mi WSW 11.5 mph - N/A   Scattered Clouds
2:53 PM 84.9 °F 84.8 °F 60.1 °F 43% 29.86 in 10.0 mi West 10.4 mph - N/A   Scattered Clouds
3:53 PM 86.0 °F 85.0 °F 57.9 °F 38% 29.84 in 10.0 mi West 13.8 mph - N/A   Partly Cloudy
4:53 PM 86.0 °F - 52.0 °F 31% 29.85 in 10.0 mi West 11.5 mph - N/A   Partly Cloudy
5:53 PM 84.0 °F - 48.9 °F 29% 29.85 in 10.0 mi NW 12.7 mph - N/A   Clear
6:53 PM 80.6 °F 80.5 °F 55.4 °F 42% 29.86 in 10.0 mi WNW 10.4 mph - N/A   Clear
7:53 PM 78.1 °F - 57.9 °F 50% 29.88 in 10.0 mi WNW 9.2 mph - N/A   Clear
8:53 PM 75.0 °F - 57.9 °F 55% 29.90 in 10.0 mi NW 5.8 mph - N/A   Clear
9:53 PM 73.0 °F - 59.0 °F 61% 29.91 in 10.0 mi NNW 4.6 mph - N/A   Clear
10:53 PM 72.0 °F - 60.1 °F 66% 29.94 in 10.0 mi NW 4.6 mph - N/A   Clear
11:53 PM 71.1 °F - 60.1 °F 68% 29.96 in 10.0 mi North 3.5 mph - N/A   Clear